• In France
  • List of Countries
  • For 7 days
  • Water Temperature
  • Satellite Maps
  • Weather Map
  • Weather Widgets
  • user-avatar
    Login

    Hourly Weather Alajuela

    Today, 21 October, Sunday

    Time Temperature Precipitation Wind Pressure Humidity
    00:00 +20°C° 0 mm 1 mps 679 mmHg 89%
    01:00 +20°C° 0 mm 1 mps 679 mmHg 89%
    02:00 +20°C° 0 mm 1 mps 679 mmHg 89%
    03:00 +20°C° 0 mm 1 mps 679 mmHg 88%
    04:00 +20°C° 0 mm 1 mps 679 mmHg 88%
    05:00 +20°C° 0 mm 1 mps 680 mmHg 88%
    06:00 +20°C° 0 mm 1 mps 680 mmHg 88%
    07:00 +22°C° 0 mm 1 mps 681 mmHg 82%
    08:00 +24°C° 0 mm 1 mps 681 mmHg 75%
    09:00 +26°C° 0 mm 1 mps 682 mmHg 68%
    10:00 +26°C° 0.3 mm 1 mps 682 mmHg 69%
    11:00 +26°C° 0.3 mm 2 mps 681 mmHg 70%
    12:00 +27°C° 0.3 mm 2 mps 681 mmHg 71%
    13:00 +26°C° 1 mm 2 mps 680 mmHg 73%
    14:00 +26°C° 1 mm 2 mps 680 mmHg 75%
    15:00 +25°C° 1 mm 2 mps 679 mmHg 77%
    16:00 +24°C° 0.7 mm 1 mps 679 mmHg 82%
    17:00 +23°C° 0.7 mm 1 mps 679 mmHg 87%
    18:00 +22°C° 0.7 mm 1 mps 679 mmHg 91%
    19:00 +21°C° 0 mm 1 mps 680 mmHg 91%
    20:00 +21°C° 0 mm 1 mps 680 mmHg 91%
    21:00 +21°C° 0 mm 1 mps 681 mmHg 91%
    22:00 +20°C° 0 mm 1 mps 680 mmHg 90%
    23:00 +20°C° 0 mm 1 mps 680 mmHg 89%

    Tomorrow, 22 October, Monday

    Time Temperature Precipitation Wind Pressure Humidity
    00:00 +20°C° 0 mm 1 mps 680 mmHg 88%
    01:00 +20°C° 0 mm 1 mps 680 mmHg 88%
    02:00 +20°C° 0 mm 1 mps 679 mmHg 87%
    03:00 +19°C° 0 mm 1 mps 679 mmHg 87%
    04:00 +20°C° 0 mm 1 mps 679 mmHg 87%
    05:00 +20°C° 0 mm 1 mps 680 mmHg 86%
    06:00 +20°C° 0 mm 1 mps 680 mmHg 86%
    07:00 +22°C° 0 mm 1 mps 681 mmHg 79%
    08:00 +24°C° 0 mm 1 mps 682 mmHg 72%
    09:00 +26°C° 0 mm 1 mps 683 mmHg 65%
    10:00 +27°C° 0.1 mm 1 mps 682 mmHg 64%
    11:00 +27°C° 0.1 mm 2 mps 682 mmHg 62%
    12:00 +28°C° 0.1 mm 2 mps 682 mmHg 60%
    13:00 +27°C° 0.7 mm 2 mps 681 mmHg 65%
    14:00 +26°C° 0.7 mm 2 mps 681 mmHg 70%
    15:00 +25°C° 0.7 mm 1 mps 680 mmHg 76%
    16:00 +24°C° 0.4 mm 1 mps 680 mmHg 81%
    17:00 +23°C° 0.4 mm 1 mps 680 mmHg 86%
    18:00 +22°C° 0.4 mm 1 mps 680 mmHg 91%
    19:00 +21°C° 0 mm 1 mps 680 mmHg 92%
    20:00 +21°C° 0 mm 1 mps 681 mmHg 92%
    21:00 +21°C° 0 mm 1 mps 681 mmHg 92%
    22:00 +20°C° 0 mm 1 mps 681 mmHg 92%
    23:00 +20°C° 0 mm 1 mps 681 mmHg 91%

    Day after tomorrow, 23 October, Tuesday

    Time Temperature Precipitation Wind Pressure Humidity
    00:00 +20°C° 0 mm 1 mps 680 mmHg 90%
    01:00 +20°C° 0 mm 1 mps 680 mmHg 88%
    02:00 +19°C° 0 mm 1 mps 680 mmHg 87%
    03:00 +19°C° 0 mm 1 mps 679 mmHg 86%
    04:00 +19°C° 0 mm 1 mps 680 mmHg 86%
    05:00 +19°C° 0 mm 1 mps 680 mmHg 85%
    06:00 +19°C° 0 mm 1 mps 680 mmHg 85%
    07:00 +22°C° 0 mm 1 mps 681 mmHg 77%
    08:00 +24°C° 0 mm 1 mps 682 mmHg 70%
    09:00 +27°C° 0 mm 1 mps 683 mmHg 62%
    10:00 +27°C° 0 mm 1 mps 683 mmHg 60%
    11:00 +28°C° 0 mm 2 mps 682 mmHg 58%
    12:00 +29°C° 0 mm 2 mps 682 mmHg 57%
    13:00 +28°C° 0.3 mm 2 mps 681 mmHg 62%
    14:00 +27°C° 0.3 mm 2 mps 680 mmHg 68%
    15:00 +26°C° 0.3 mm 1 mps 680 mmHg 73%
    16:00 +25°C° 0.2 mm 1 mps 680 mmHg 79%
    17:00 +23°C° 0.2 mm 1 mps 680 mmHg 84%
    18:00 +22°C° 0.2 mm 1 mps 680 mmHg 90%
    19:00 +22°C° 0 mm 1 mps 680 mmHg 91%
    20:00 +21°C° 0 mm 1 mps 681 mmHg 92%
    21:00 +21°C° 0 mm 1 mps 681 mmHg 93%
    22:00 +21°C° 0 mm 1 mps 681 mmHg 92%
    23:00 +20°C° 0 mm 1 mps 681 mmHg 91%

    24 October, Wednesday

    Time Temperature Precipitation Wind Pressure Humidity
    00:00 +20°C° 0 mm 1 mps 681 mmHg 90%
    01:00 +20°C° 0 mm 1 mps 680 mmHg 89%
    02:00 +19°C° 0 mm 1 mps 680 mmHg 87%
    03:00 +19°C° 0 mm 1 mps 679 mmHg 85%
    04:00 +19°C° 0 mm 1 mps 680 mmHg 83%
    05:00 +19°C° 0 mm 1 mps 680 mmHg 81%
    06:00 +19°C° 0 mm 1 mps 680 mmHg 79%
    07:00 +22°C° 0 mm 1 mps 681 mmHg 72%
    08:00 +24°C° 0 mm 1 mps 682 mmHg 65%
    09:00 +27°C° 0 mm 1 mps 683 mmHg 59%
    10:00 +28°C° 0 mm 1 mps 683 mmHg 58%
    11:00 +28°C° 0 mm 2 mps 682 mmHg 57%
    12:00 +29°C° 0 mm 2 mps 682 mmHg 57%
    13:00 +28°C° 0.1 mm 2 mps 681 mmHg 62%
    14:00 +26°C° 0.1 mm 2 mps 680 mmHg 68%
    15:00 +25°C° 0.1 mm 2 mps 679 mmHg 74%
    16:00 +24°C° 0.2 mm 1 mps 680 mmHg 81%
    17:00 +23°C° 0.2 mm 1 mps 680 mmHg 87%
    18:00 +20°C° 0.2 mm 0 mps 680 mmHg 93%
    19:00 +20°C° 0.1 mm 0 mps 680 mmHg 94%
    20:00 +19°C° 0.1 mm 0 mps 681 mmHg 94%
    21:00 +19°C° 0.1 mm 0 mps 681 mmHg 94%
    22:00 +19°C° 0 mm 0 mps 681 mmHg 94%
    23:00 +19°C° 0 mm 0 mps 680 mmHg 93%

    25 October, Thursday

    Time Temperature Precipitation Wind Pressure Humidity
    00:00 +18°C° 0 mm 0 mps 680 mmHg 92%
    01:00 +18°C° 0 mm 0 mps 680 mmHg 91%
    02:00 +20°C° 0 mm 1 mps 679 mmHg 90%
    03:00 +19°C° 0 mm 1 mps 679 mmHg 88%
    04:00 +19°C° 0 mm 1 mps 679 mmHg 87%
    05:00 +19°C° 0 mm 1 mps 680 mmHg 86%
    06:00 +19°C° 0 mm 1 mps 680 mmHg 84%
    07:00 +22°C° 0 mm 1 mps 681 mmHg 77%
    08:00 +24°C° 0 mm 1 mps 682 mmHg 69%
    09:00 +27°C° 0 mm 1 mps 683 mmHg 61%
    10:00 +27°C° 0.1 mm 1 mps 682 mmHg 62%
    11:00 +27°C° 0.1 mm 2 mps 681 mmHg 64%
    12:00 +27°C° 0.1 mm 2 mps 681 mmHg 65%
    13:00 +26°C° 0.8 mm 2 mps 680 mmHg 71%
    14:00 +25°C° 0.8 mm 2 mps 679 mmHg 77%
    15:00 +25°C° 0.8 mm 1 mps 679 mmHg 83%
    16:00 +24°C° 1 mm 1 mps 679 mmHg 87%
    17:00 +23°C° 1 mm 1 mps 679 mmHg 91%
    18:00 +20°C° 1 mm 0 mps 679 mmHg 95%
    19:00 +20°C° 0.3 mm 0 mps 680 mmHg 94%
    20:00 +19°C° 0.3 mm 0 mps 680 mmHg 94%
    21:00 +19°C° 0.3 mm 0 mps 680 mmHg 94%
    22:00 +19°C° 0.1 mm 0 mps 680 mmHg 93%
    23:00 +19°C° 0.1 mm 0 mps 680 mmHg 93%

    26 October, Friday

    Time Temperature Precipitation Wind Pressure Humidity
    00:00 +18°C° 0.1 mm 0 mps 679 mmHg 93%
    01:00 +18°C° 0 mm 0 mps 679 mmHg 92%
    02:00 +18°C° 0 mm 0 mps 679 mmHg 91%
    03:00 +20°C° 0 mm 1 mps 679 mmHg 91%
    04:00 +20°C° 0 mm 1 mps 679 mmHg 90%
    05:00 +20°C° 0 mm 1 mps 679 mmHg 89%
    06:00 +20°C° 0 mm 1 mps 680 mmHg 88%
    07:00 +22°C° 0 mm 1 mps 681 mmHg 80%
    08:00 +24°C° 0 mm 1 mps 681 mmHg 73%
    09:00 +27°C° 0 mm 1 mps 682 mmHg 65%
    10:00 +27°C° 0.1 mm 1 mps 682 mmHg 65%
    11:00 +27°C° 0.1 mm 2 mps 681 mmHg 64%
    12:00 +28°C° 0.1 mm 2 mps 680 mmHg 64%
    13:00 +27°C° 0.6 mm 2 mps 680 mmHg 70%
    14:00 +26°C° 0.6 mm 2 mps 679 mmHg 76%
    15:00 +25°C° 0.6 mm 2 mps 679 mmHg 81%
    16:00 +24°C° 0.8 mm 1 mps 679 mmHg 86%
    17:00 +23°C° 0.8 mm 1 mps 679 mmHg 90%
    18:00 +20°C° 0.8 mm 0 mps 680 mmHg 95%
    19:00 +20°C° 0.4 mm 0 mps 680 mmHg 95%
    20:00 +19°C° 0.4 mm 0 mps 680 mmHg 94%
    21:00 +19°C° 0.4 mm 0 mps 681 mmHg 94%
    22:00 +19°C° 0.2 mm 0 mps 680 mmHg 94%
    23:00 +19°C° 0.2 mm 0 mps 680 mmHg 93%
    Show more